www.pogodaiklimat.ru

Погода и климат >> Архив погоды >> Россия >> Амурская область >> Белогорск


ПОГОДА в Белогорске

  • Прогноз погоды в Белогорске
  • Монитор погоды в Белогорске

АРХИВ ПОГОДЫ в Белогорске

Время (UTC), дата Ветер
(напр.,м/с)
 
Видим.   Явления Облачность Т
(С)
Тd
(С)
f
(%)
Тe
(С)
Тes
(С)
Комфортность P
(гПа)
Po
(гПа)
Тmin
(С)
Tmax
(С)
R
(мм)
R24
(мм)
S
(см)
12 9.09 З 1 50 км слаб. ливневой дождь 8/8 600 м
[Cb cap]
+12.3 +8.4 77 +12 +12 1005.4 984.3 +17.5 0.0
15 9.09 СЗ 2 50 км {ливн. осадки} 4/3 600 м
[Cb cap Ci fib]
+8.6 +7.4 92 +7 +7 1007.5 986.1
18 9.09 СЗ 2 50 км {ливн. осадки} 3/1 600 м
[Cb cap Ci fib]
+7.4 +6.5 94 +5 +5 1010.2 988.6
21 9.09 СЗ 2 50 км 10/10 600 м
[Cb cap]
+9.2 +8.2 93 +7 +7 1012.4 990.9
00 10.09 С 1 50 км 10/10 600 м
[Cb cap]
+10.4 +7.8 84 +10 +10 1014.3 992.8 +7.4 0.0
03 10.09 С 2 50 км 10/10 600 м
[Cb cap]
+12.1 +8.6 79 +11 +11 1015.3 994.0
09 10.09 ЮЗ 1 50 км 10/8 600 м
[Sc diur, vesp Ac trans Ci fib]
+14.3 +8.6 69 +15 +15 1016.4 995.2
12 10.09 ЮЗ 1 50 км 6/4 600 м
[Sc diur, vesp Ac trans Ci fib]
+11.7 +9.3 85 +12 +12 1018.0 996.6 +15.1
15 10.09 штиль 0 50 км 4/0
[Ac trans]
+9.1 +7.7 91 +8 +8 1018.3 996.7
18 10.09 З 2 50 км 10/4 600 м
[Sc Ac trans]
+10.0 +7.6 85 +8 +8 1018.4 996.8
21 10.09 СЗ 2 50 км 10/10 600 м
[Sc diur, vesp]
+9.3 +6.4 82 +8 +8 1019.2 997.6
00 11.09 СЗ 1 50 км 8/0
[Ac trans]
+12.0 +7.6 74 +12 +15 1019.3 997.9 +9.1
03 11.09 СЗ 2 50 км 5/3 600 м
[Cu med, cong Ci sp]
+18.1 +7.8 51 +19 +25 1018.6 997.6
06 11.09 З 1 50 км 3/3 600 м
[Cu med, cong]
+20.0 +4.1 35 +22 +27 комфорт 1017.1 996.3
09 11.09 З 2 50 км 1/0
[Ci fib]
+18.7 +5.5 42 +20 +20 1017.0 996.1
12 11.09 Ю 1 50 км 1/0
[Ci fib]
+13.2 +7.4 68 +13 +13 1017.7 996.4 +20.9
15 11.09 Ю 1 50 км 3/0
[Ac trans]
+10.9 +6.6 75 +11 +11 1018.3 996.8
21 11.09 ЮВ 2 50 км 10/9 600 м
[Sc Ci fib]
+11.9 +7.7 75 +11 +11 1016.7 995.3
00 12.09 Ю 3 50 км 3/0
[Ac trans Ci fib]
+16.5 +8.2 58 +16 +19 1015.8 994.7 +10.4
03 12.09 Ю 4
{10}
50 км 8/0
[Ci fib]
+21.6 +7.8 41 +23 +28 комфорт 1013.6 993.0
06 12.09 Ю 4
{10}
50 км 10/0
[Ac trans Ci fib]
+23.2 +8.8 40 +25 +27 комфорт 1011.6 991.1
09 12.09 Ю 3 50 км 3/0
[Ac trans Ci fib]
+22.1 +9.6 45 +24 +24 комфорт 1010.9 990.3
12 12.09 Ю 2 50 км 3/0
[Ci fib]
+17.2 +9.1 59 +18 +18 1011.0 990.1 +24.2
15 12.09 Ю 2 50 км 10/0
[Ac trans Cs]
+14.6 +10.0 74 +14 +14 1010.3 989.3
18 12.09 Ю 2 50 км 10/0
[Ac und]
+14.9 +9.9 72 +15 +15 1008.0 987.1
21 12.09 Ю 2 50 км 10/4 600 м
[Sc Ac trans Ci fib]
+13.5 +9.5 77 +13 +13 1005.3 984.3
00 13.09 Ю 5-11
{11}
50 км 10/6 600 м
[Cb calv Ac und]
+16.1 +9.5 65 +15 +15 1002.7 981.9 +13.5
03 13.09 Ю 4
{15}
50 км слаб. ливневой дождь 10/10 600 м
[Cb cap]
+14.3 +12.3 88 +13 +13 1001.6 980.8
06 13.09 ЮЗ 2
{11}
4000 м дождь {ливн. осадки} 10/10 600 м
[Frnb Ns]
+14.6 +13.6 94 +14 +14 1000.9 980.1
09 13.09 СЗ 1 50 км в посл. час дождь {ливн. осадки} 8/8 600 м
[Sc]
+12.7 +11.4 92 +13 +13 1003.2 982.2
12 13.09 ЮЗ 1 50 км {ливн. осадки, дождь} 3/0
[Ac trans]
+10.1 +8.4 89 +10 +10 1005.9 984.7 +16.2 10
15 13.09 З 2 50 км ясно +9.2 +6.0 80 +8 +8 1007.6 986.2
18 13.09 З 1 50 км ясно +5.6 +4.4 92 +4 +4 1009.2 987.4
21 13.09 Ю 1 50 км ясно +4.8 +3.8 93 +3 +3 1010.4 988.6
00 14.09 Ю 1 50 км 3/0
[Ac trans]
+13.4 +6.4 63 +14 +17 1011.0 989.8 +4.6
03 14.09 штиль 0 50 км 4/0
[Ac trans]
+17.1 +2.2 37 +17 +27 1010.4 989.5
09 14.09 ЮВ 2 50 км 4/4 600 м
[Sc]
+17.5 +5.7 46 +18 +18 1008.5 987.7
12 14.09 ЮВ 1 50 км 6/3 600 м
[Sc Ac trans]
+13.4 +6.3 62 +14 +14 1009.2 988.1 +19.4
15 14.09 Ю 2 50 км 4/4 600 м
[Sc]
+11.3 +8.1 81 +10 +10 1008.4 987.2
18 14.09 Ю 2 50 км 6/6 600 м
[Sc]
+12.0 +9.4 84 +11 +11 1006.7 985.6
21 14.09 Ю 1 50 км 10/8 600 м
[Cb cap Ac trans Ci fib]
+10.8 +9.1 89 +10 +10 1005.4 984.2
00 15.09 Ю 3 50 км {ливн. осадки} 4/3 600 м
[Cu med, cong Ac trans]
+14.5 +9.4 71 +14 +16 1003.4 982.5 +10.7 0.0
06 15.09 ЮЗ 6-12
{12}
50 км 8/5 600 м
[Cb cap Ac trans Ci fib]
+20.4 +9.4 49 +22 +22 комфорт 998.3 978.0
09 15.09 З 3
{12}
50 км {ливн. осадки} 10/6 600 м
[Sc diur, vesp Ac trans Ci fib]
+14.3 +7.8 65 +13 +13 1000.8 979.9
12 15.09 штиль 0 50 км {ливн. осадки} 3/0
[Ci fib]
+6.1 +3.8 85 +5 +5 1007.8 986.2 +20.4 0.0
00 16.09 З 3 50 км ясно +7.7 -3.8 44 +6 +9 1010.2 988.6 +2.4

 

Местоположение метеостанции Белогорск (Амурская область, Россия): широта 50.92 долгота 128.40 высота над уровнем моря 178 м.

В архиве по умолчанию представлена погода в Белогорске за последнюю неделю. Архивные данные за месяц целиком и за предыдущие месяцы, начиная с января 2011 года, Вы можете получить, выбрав интересующий диапазон дат из раскрывающегося списка и нажав кнопку "Ввод!".


*Определитесь, кто Вы:
робот инопланетянин человек

Внимание! Время в таблицах - всемирное. Для получения местного времени необходимо прибавить поправку, которая равна 9 ч.

Смотрите также архив погоды в соседних городах и на ближайших метеорологических станциях:

Погода в Свободном (Амурская область, Россия) (63 км)
Погода в Братолюбовке (Амурская область, Россия) (65 км)
Погода в Екатеринославке (Амурская область, Россия) (74 км)
Погода в Сергеевке (Амурская область, Россия) (79 км)
Погода в Мазаново (Амурская область, Россия) (84 км)
Погода в Благовещенске (Амурская область, Россия) (100 км)
Погода в Айгуне (Хэйлунцзян, Китай) (100 км)
Погода в Завитае (Амурская область, Россия) (114 км)
Погода в Шимановске (Амурская область, Россия) (130 км)
Погода в Саскале (Амурская область, Россия) (132 км)

Пояснения к столбцам:

Ветер - указаны скорость ветра в м/с - средняя за 10 мин, порывы в срок и между сроками (в фигурных скобках) и направление, откуда дует ветер: С - северный, СВ - северо-восточный, В - восточный, ЮВ - юго-восточный, Ю - южный, ЮЗ - юго-западный, З - западный, СЗ - северо-западный.
Видимость - горизонтальная дальность видимости в метрах или километрах. При видимости от 1 до 10 км при отсутствии осадков обычно наблюдается дымка, при ухудшении видимости до 1 км и менее - туман. В сухую погоду видимость может ухудшаться дымом, пылью или мглою.
Явления - указаны атмосферные явления, наблюдавшиеся в срок или в последний час перед сроком; фигурными скобками обозначены явления, наблюдавшиеся между сроками (за 1-3 часа до срока); квадратными скобками обозначены град или гололедные отложения с указанием их диаметра в мм.
Облачность - указаны через наклонную черту общая и нижняя облачность в баллах и высота нижней границы облаков в метрах; квадратными скобками обозначены формы облаков: Ci - перистые, Cs - перисто-слоистые, Cc - перисто-кучевые, Ac - высококучевые, As - высокослоистые, Sc - слоисто-кучевые, Ns - слоисто-дождевые, Cu - кучевые, Cb - кучево-дождевые. Подробнее классификацию облаков см. в Атласе облаков (PDF).
T - Температура воздуха - температура, измеренная на высоте 2 м над землей.
Td - Температура точки росы - температура, при понижении до которой содержащийся в воздухе водяной пар достигнет насыщения.
f - Относительная влажность воздуха - влажноcть воздуха, измеренная на высоте 2 м над землей.
Te - Эффективная температура - температура, которую ощущает одетый по сезону человек в тени. Характеристика душности погоды. При расчете учитывается влияние влажности воздуха и скорости ветра на теплоощущения человека.
Tes - Эффективная температура на солнце - температура, которую ощущает человек, с поправкой на солнечный нагрев. Характеристика знойности погоды. Зависит от высоты солнца над горизонтом, облачности и скорости ветра. Ночью, в пасмурную погоду, а также при ветре 12 м/с и более поправка равна нулю.
P - Атмосферное давление - приведенное к уровню моря атмосферное давление.
Po - Атмосферное давление - измеренное на уровне метеостанции атмосферное давление.
Tmin - Минимальная температура - минимум температуры воздуха на высоте 2 м над землей.
Tmax - Максимальная температура - максимум температуры воздуха на высоте 2 м над землей.
R - Количество осадков - Количество выпавших осадков за период времени, мм. При наведении курсора мыши на число - период времени, за который выпало указанное количество осадков.
R24 - Количество осадков - Количество выпавших осадков за 24 часа, мм.
S - Снежный покров - Высота снежного покрова, см. При наведении курсора мыши на число - состояние снежного покрова и степень покрытия местности в баллах.